| time (UTC) | temp C | wind direction | speed KPH | gust KPH | rain 1hr cm | rain 24hr cm | rain mn cm | humidity % | barometer mb |
| 20260503200039 | 21 | 278 | 1.6 | 11.3 | 0.00 | 0.00 | 0.00 | 34 | 1033.6 |
| 20260503194537 | 22 | 196 | 1.6 | 12.9 | 0.00 | 0.00 | 0.00 | 31 | 1033.9 |
| 20260503193042 | 22 | 200 | 6.4 | 11.3 | 0.00 | 0.00 | 0.00 | 34 | 1034.1 |
| 20260503191535 | 21 | 269 | 1.6 | 11.3 | 0.00 | 0.00 | 0.00 | 34 | 1034.4 |
| 20260503190027 | 21 | 202 | 1.6 | 9.7 | 0.00 | 0.00 | 0.00 | 40 | 1034.7 |
| 20260503184527 | 20 | 192 | 1.6 | 9.7 | 0.00 | 0.00 | 0.00 | 40 | 1035.2 |
| 20260503183030 | 20 | 198 | 1.6 | 11.3 | 0.00 | 0.00 | 0.00 | 41 | 1035.7 |
| 20260503181527 | 19 | 229 | 1.6 | 8.0 | 0.00 | 0.00 | 0.00 | 44 | 1035.9 |
| 20260503180014 | 18 | 196 | 3.2 | 9.7 | 0.00 | 0.00 | 0.00 | 43 | 1036.4 |
| 20260503174511 | 18 | 196 | 3.2 | 11.3 | 0.00 | 0.00 | 0.00 | 43 | 1036.6 |
| 20260503173022 | 18 | 205 | 3.2 | 6.4 | 0.00 | 0.00 | 0.00 | 47 | 1036.7 |
| 20260503171503 | 17 | 200 | 1.6 | 11.3 | 0.00 | 0.00 | 0.00 | 50 | 1037.1 |
| 20260503170104 | 17 | 198 | 3.2 | 12.9 | 0.00 | 0.00 | 0.00 | 51 | 1037.3 |
| 20260503120106 | 2 | 196 | 0.0 | 0.0 | 0.00 | 0.00 | 0.00 | 88 | 1037.8 |
| 20260503081529 | 5 | 196 | 0.0 | 0.0 | 0.00 | 0.00 | 0.00 | 79 | 1037.6 |
| 20260503071525 | 6 | 196 | 0.0 | 0.0 | 0.00 | 0.00 | 0.00 | 76 | 1037.8 |
| 20260503054505 | 8 | 196 | 0.0 | 0.0 | 0.00 | 0.00 | 0.00 | 69 | 1037.6 |
| 20260503053006 | 9 | 196 | 0.0 | 0.0 | 0.00 | 0.00 | 0.00 | 68 | 1037.4 |
| 20260503051506 | 10 | 196 | 0.0 | 0.0 | 0.00 | 0.00 | 0.00 | 67 | 1037.4 |
| 20260503050005 | 10 | 196 | 0.0 | 0.0 | 0.00 | 0.00 | 0.00 | 67 | 1037.3 |
| 20260503044504 | 10 | 196 | 0.0 | 1.6 | 0.00 | 0.00 | 0.00 | 65 | 1037.3 |
| 20260503043003 | 11 | 196 | 0.0 | 1.6 | 0.00 | 0.00 | 0.00 | 64 | 1037.1 |
| 20260503041503 | 11 | 196 | 0.0 | 0.0 | 0.00 | 0.00 | 0.00 | 61 | 1037.1 |
| 20260503040002 | 11 | 196 | 0.0 | 3.2 | 0.00 | 0.00 | 0.00 | 60 | 1036.9 |
| 20260503034501 | 12 | 196 | 0.0 | 4.8 | 0.00 | 0.00 | 0.00 | 59 | 1036.8 |
| 20260503033109 | 12 | 195 | 0.0 | 3.2 | 0.00 | 0.00 | 0.00 | 57 | 1036.7 |
| 20260503031600 | 12 | 202 | 1.6 | 9.7 | 0.00 | 0.00 | 0.00 | 56 | 1036.6 |
| 20260503024601 | 13 | 199 | 0.0 | 8.0 | 0.00 | 0.00 | 0.00 | 51 | 1036.3 |
| 20260503023101 | 13 | 204 | 0.0 | 8.0 | 0.00 | 0.00 | 0.00 | 50 | 1036.1 |
| 20260503021558 | 14 | 221 | 0.0 | 4.8 | 0.00 | 0.00 | 0.00 | 50 | 1035.9 |
| 20260503020111 | 15 | 218 | 0.0 | 4.8 | 0.00 | 0.00 | 0.00 | 47 | 1035.8 |
| 20260503014606 | 16 | 218 | 0.0 | 4.8 | 0.00 | 0.00 | 0.00 | 44 | 1035.5 |
| 20260503013115 | 16 | 245 | 0.0 | 6.4 | 0.00 | 0.00 | 0.00 | 43 | 1035.5 |
| 20260503011556 | 17 | 226 | 0.0 | 6.4 | 0.00 | 0.00 | 0.00 | 39 | 1035.5 |
| 20260503010055 | 17 | 210 | 1.6 | 8.0 | 0.00 | 0.00 | 0.00 | 37 | 1035.4 |
| 20260503004604 | 18 | 212 | 0.0 | 3.2 | 0.00 | 0.00 | 0.00 | 38 | 1035.4 |
| 20260503003054 | 18 | 211 | 0.0 | 12.9 | 0.00 | 0.00 | 0.00 | 36 | 1035.4 |
| 20260503001556 | 18 | 277 | 3.2 | 14.5 | 0.00 | 0.00 | 0.00 | 38 | 1035.4 |
| 20260503000057 | 18 | 196 | 1.6 | 11.3 | 0.00 | 0.03 | 0.00 | 37 | 1035.5 |
| 20260502234602 | 19 | 296 | 1.6 | 12.9 | 0.00 | 0.03 | 0.00 | 38 | 1035.4 |
| 20260502233049 | 19 | 194 | 1.6 | 12.9 | 0.00 | 0.03 | 0.00 | 38 | 1035.5 |
| 20260502230048 | 19 | 225 | 3.2 | 16.1 | 0.00 | 0.25 | 0.00 | 39 | 1035.6 |
| 20260502224547 | 19 | 188 | 6.4 | 14.5 | 0.00 | 0.25 | 0.00 | 38 | 1035.6 |
| 20260502223057 | 19 | 190 | 3.2 | 12.9 | 0.00 | 0.25 | 0.00 | 38 | 1035.7 |
| 20260502221545 | 18 | 285 | 1.6 | 11.3 | 0.00 | 0.25 | 0.00 | 40 | 1035.9 |
| 20260502220042 | 18 | 200 | 3.2 | 11.3 | 0.00 | 0.25 | 0.00 | 38 | 1036.2 |
| 20260502214550 | 21 | 199 | 4.8 | 12.9 | 0.00 | 0.25 | 0.00 | 35 | 1036.5 |
| 20260502213039 | 21 | 273 | 1.6 | 9.7 | 0.00 | 0.25 | 0.00 | 34 | 1036.6 |
| 20260502211535 | 21 | 255 | 1.6 | 9.7 | 0.00 | 0.25 | 0.00 | 35 | 1036.8 |
| 20260502210029 | 20 | 106 | 1.6 | 9.7 | 0.00 | 0.25 | 0.00 | 34 | 1037.2 |
| 20260502204536 | 20 | 133 | 1.6 | 6.4 | 0.00 | 0.25 | 0.00 | 36 | 1037.4 |
| 20260502203035 | 20 | 32 | 1.6 | 6.4 | 0.00 | 0.25 | 0.00 | 36 | 1037.8 |
| 20260502201521 | 20 | 12 | 0.0 | 6.4 | 0.00 | 0.25 | 0.00 | 40 | 1037.9 |